This demonstration page uses our WeatherBlox Daily Observations layout. Learn more.

36.17497, -115.13722

Hourly Observations for July 11, 2016

Temp ( °F °C ) Dew Point ( °F °C ) Humidity (%) Winds ( mph kmh ) Pressure ( in mb ) Visibility ( mi km ) Precip ( " mm )
12:53 am 00:53 Clear 83 28.3 25 -3.9 12 12 N 7 11 29.56 1001 10 16.09344 0 0
1:53 am 01:53 Clear 83 28.3 27 -2.8 13 13 NNE 3 6 29.59 1002 10 16.09344 0 0
2:53 am 02:53 Clear 82 27.8 27 -2.8 13 13 WSW 5 7 29.59 1002 10 16.09344 0 0
3:53 am 03:53 Clear 84 28.9 21 -6.1 10 10 NNE 9 15 29.62 1003 10 16.09344 0 0
4:53 am 04:53 Clear 83 28.3 19 -7.2 9 9 N 10 17 29.62 1003 10 16.09344 0 0
5:53 am 05:53 Sunny 81 27.2 14 -10 8 8 N 10 17 29.65 1004 10 16.09344 0 0
6:53 am 06:53 Sunny 82 27.8 16 -8.9 8 8 N 13 20 29.68 1005 10 16.09344 0 0
7:53 am 07:53 Sunny 85 29.4 17 -8.3 8 8 N 21 33 29.71 1006 10 16.09344 0 0
8:53 am 08:53 Sunny 87 30.6 20 -6.7 8 8 N 16 26 29.74 1007 10 16.09344 0 0
9:53 am 09:53 Sunny 89 31.7 19 -7.2 7 7 N 5 7 29.71 1006 10 16.09344 0 0
10:53 am 10:53 Sunny 91 32.8 20 -6.7 7 7 ENE 3 6 29.71 1006 10 16.09344 0 0
11:53 am 11:53 Sunny 92 33.3 20 -6.7 7 7 SSW 8 13 29.68 1005 10 16.09344 0 0
12:53 pm 12:53 Sunny 95 35 22 -5.6 7 7 ESE 9 15 29.68 1005 10 16.09344 0 0
1:53 pm 13:53 Sunny 95 35 22 -5.6 7 7 N 6 9 29.62 1003 10 16.09344 0 0
2:53 pm 14:53 Sunny 98 36.7 22 -5.6 6 6 ENE 5 7 29.59 1002 10 16.09344 0 0
3:53 pm 15:53 Sunny 98 36.7 22 -5.6 6 6 N 6 9 29.56 1001 10 16.09344 0 0
4:53 pm 16:53 Sunny 98 36.7 23 -5 7 7 SSW 3 6 29.56 1001 10 16.09344 0 0
5:53 pm 17:53 Sunny 98 36.7 23 -5 7 7 Calm 29.53 1000 10 16.09344 0 0
6:53 pm 18:53 Sunny 97 36.1 23 -5 7 7 E 5 7 29.53 1000 10 16.09344 0 0
7:53 pm 19:53 Sunny 96 35.6 23 -5 7 7 NE 5 7 29.53 1000 10 16.09344 0 0
8:53 pm 20:53 Clear 94 34.4 26 -3.3 9 9 NW 5 7 29.53 1000 10 16.09344 0 0
9:53 pm 21:53 Clear 91 32.8 28 -2.2 10 10 W 6 9 29.59 1002 10 16.09344 0 0
10:53 pm 22:53 Clear 87 30.6 31 -0.6 13 13 N 5 7 29.59 1002 10 16.09344 0 0
11:53 pm 23:53 Clear 84 28.9 27 -2.8 12 12 NNW 6 9 29.62 1003 10 16.09344 0 0

Powered by AerisWeather